Location: Pallagorio
(39.3000°N, 16.9000°E)
Time: 19:03:56
(UTC+00:00)

X-37B - Pass Details

Date: 24 January 2021
Orbit: 383 x 391 km, 45.0° (Epoch: 27 February)

Event Time Altitude Azimuth Distance (km) Brightness Sun altitude
Rises 18:26:57 0° 293° (WNW) 2,276 5.5 -27.6°
Reaches altitude 10° 18:29:10 10° 304° (NW) 1,421 4.1 -28.0°
Enters shadow 18:29:28 12° 307° (NW) 1,314 3.8 -28.1°
